Regional Weather Roundup
Issued by NWS

Home | Current Version | Previous Version | Text Only | Print | Product List | Glossary Off
Versions: 1 2 3 4 5 6 7 8 9 10 11 12 13 14 15 16 17 18 19 20 21 22 23 24 25 26 27 28 29 30 31 32 33 34 35 36 37 38 39 40 41 42 43 44 45 46 47 48 49 50

000
ASUS43 KFSD 192102
RWRSD

WEATHER ROUNDUP FOR SOUTH DAKOTA
NATIONAL WEATHER SERVICE SIOUX FALLS SD
400 PM CDT TUE AUG 19 2014

NOTE: "FAIR" INDICATES FEW OR NO CLOUDS BELOW 12,000 FEET WITH NO
SIGNIFICANT WEATHER AND/OR OBSTRUCTIONS TO VISIBILITY.


SDZ001>005-009-010-012>017-192200-
NORTHWEST AND NORTH CENTRAL SOUTH DAKOTA

CITY           SKY/WX    TMP DP  RH WIND       PRES   REMARKS
BUFFALO          N/A     91  54  28 E12       29.70F
FAITH            N/A     87  57  35 SE14      29.77F
MOBRIDGE       SUNNY     86  60  41 CALM      29.73F
$$

SDZ012>016-024>037-041>051-057-063-072>074-192200-
SOUTHWEST AND SOUTH CENTRAL SOUTH DAKOTA

CITY           SKY/WX    TMP DP  RH WIND       PRES   REMARKS
RAPID CTY ARPT MOSUNNY   81  65  58 NE5       29.79F
PIERRE         SUNNY     90  58  33 E10G17    29.74F
CUSTER         MOSUNNY   80  51  36 SE8G16    29.93F
ELLSWORTH AFB  MOSUNNY   83  59  43 S5        29.79F
PHILIP         SUNNY     92  55  28 E15G21    29.74F
PINE RIDGE     MOSUNNY   89  56  32 S12G18    29.77F
WINNER         FAIR      89  59  36 SE10      29.78F
$$

SDZ004>011-016>023-039-040-192200-
NORTHEAST SOUTH DAKOTA

CITY           SKY/WX    TMP DP  RH WIND       PRES   REMARKS
ABERDEEN       MOSUNNY   83  61  47 E3        29.77S
WATERTOWN      SUNNY     81  61  50 NW9       29.80F
SISSETON         N/A     83  66  56 VRB5      29.75F
$$

SDZ017-020-022-023-036>040-048>070-192200-
SOUTHEAST SOUTH DAKOTA

CITY           SKY/WX    TMP DP  RH WIND       PRES   REMARKS
SIOUX FALLS    MOSUNNY   84  61  45 CALM      29.80F
HURON          MOSUNNY   88  59  37 N3        29.77F
CHAMBERLAIN    SUNNY     85  62  45 E6        29.77F
MITCHELL       SUNNY     86  62  44 NE3       29.78F
YANKTON        SUNNY     84  63  48 SE5       29.79F
$$

ABBREVIATIONS USED IN REMARKS
   TC - TEMPERATURE IN CELSIUS
  WCI - WIND CHILL INDEX
   HX - HEAT INDEX
  VSB - VISIBILITY



USA.gov is the U.S. government's official web portal to all federal, state and local government web resources and services.